CZ-6A DEB, 54563

Orbit data source: Space-Track

CZ-6A DEB, 54563 is space debris in SSO originally from a launch on Fri, 11 Nov 2022 UTC launched from the Taiyaun Space Center, China (TSC). Debris objects in space refer to the collection of defunct objects orbiting the Earth. Examples of debris include non-operational satellites, rocket bodies, and fragments generated from explosions, collisions, or faulty payload assembly.

Loading next visibility...
Identifier
54563, 2022-151LP
Orbit
SSO
Country
Flag of CNCN / PRC
Related business
Manufacturer
SAST
Mission
Spacecraft
Bus & Motor
Unknown
Mass
Unknown
Launch date (UTC)
2022-11-11 (4 years ago)
Launch vehicle
Unknown
Launch site
Taiyaun Space Center, China (TSC)
Object type
Payload
Rocket body
Debris
Shape & HBR
Unknown shape, 0.3 m
Radar Cross Section
Medium (>0.1 m² and <1 m²)

Expand to show TLE details & history
Last TLE update: 2 days ago

TLE from 2 days ago
0 CZ-6A DEB
1 54563U 22151LP  26171.41291392  .00000705  00000-0  38567-3 0  9996
2 54563  98.8284 178.3940 0034483 311.3450  48.4758 14.14917684185594
Epoch: 2026-06-20T09:54Z
TLE epoch observation values (Epoch: 2026-06-20T09:54:35.762Z)
Latitude
-0.00004°
Longitude
121.1171°
Altitude
829.034 km
Speed
7.447 km/s
True Right ascension
11h 53m 34s
True Declination
0° 00' 00"
Sunlit
Object was in daylight at epoch
Visualization orbit readout
Latitude
Unknown
Longitude
Unknown
Altitude
Unknown
Speed
Unknown
Apparent Right ascension
Unknown
Apparent Declination
Unknown
Sunlit
N/A
Visualization observer readout
Local Sidereal Time
21:23:37
Azimuth
Unknown
Elevation
Unknown
Doppler factor
Unknown
Orbital elements
Apogee altitude
864.653 km
Perigee altitude
814.874 km
Semi-major axis
7,217.9 km
Eccentricity
0.00345
Inclination
98.8284°
RAAN
178.394°
Arg. of periapsis
311.345°
True anomaly
48.77248°
Mean anomaly
48.4758°
Eccentric anomaly
48.62406°
Mean motion
3.53938 °/min
Orbital period
101.71 mins
BSTAR
0.00038567
Loading maneuver chart data...
Computing Atmospheric mass density...
Loading historical data...
Loading historical data...
Loading historical data...
Loading historical data...
Loading historical data...
Loading historical data...
Loading historical data...

Documentation

Showing up to 5 results
|